Zurück zum Katalog

METEOR 1-10 DEB

AktivPO
NORAD 8827·DEBRIS·🇷🇺 Russia

Gestartet Dec 29, 1971 von Plesetsk Cosmodrome

Loading…

Nächste Überflüge (nächste 24 Stunden)

TLE

AktuellSource: Space-Track

Epoche: Sep 14, 2026, 08:53 UTC

1 08827U 71120D   26257.37056156  .00000110  00000-0  48390-4 0  9991
2 08827  81.2642 238.1286 0012926 341.3177  18.7521 14.17083887820760

Verfolge METEOR 1-10 DEB in Echtzeit mit AllMySat

Download on the App Store